TimeEST,TemperatureF,Dew PointF,Humidity,Sea Level PressureIn,VisibilityMPH,Wind Direction,Wind SpeedMPH,Gust SpeedMPH,PrecipitationIn,Events,Conditions,WindDirDegrees,DateUTC
12:53 AM,37.9,30.0,73,29.81,10.0,WSW,13.8,-,N/A,,Overcast,240,2004-01-24 05:53:00
1:53 AM,37.0,30.0,76,29.81,10.0,WSW,11.5,-,N/A,,Overcast,250,2004-01-24 06:53:00
2:53 AM,35.1,30.0,82,29.82,10.0,WSW,10.4,-,N/A,,Partly Cloudy,250,2004-01-24 07:53:00
3:53 AM,34.0,30.0,85,29.82,10.0,West,8.1,-,N/A,,Clear,280,2004-01-24 08:53:00
4:53 AM,33.1,28.9,85,29.85,10.0,WNW,8.1,-,N/A,,Clear,290,2004-01-24 09:53:00
5:53 AM,32.0,28.0,85,29.88,10.0,WNW,5.8,-,N/A,,Clear,300,2004-01-24 10:53:00
6:53 AM,28.9,25.0,85,29.92,10.0,NNW,10.4,-,N/A,,Clear,340,2004-01-24 11:53:00
7:41 AM,28.4,24.8,86,29.94,9.0,NNW,8.1,-,N/A,,Mostly Cloudy,340,2004-01-24 12:41:00
7:53 AM,28.0,25.0,88,29.97,8.0,North,13.8,-,N/A,,Overcast,350,2004-01-24 12:53:00
8:53 AM,27.0,21.0,78,30.00,10.0,North,18.4,-,N/A,,Overcast,360,2004-01-24 13:53:00
9:53 AM,27.0,19.9,75,30.05,10.0,North,16.1,-,N/A,,Overcast,360,2004-01-24 14:53:00
10:53 AM,27.0,19.9,75,30.10,10.0,North,8.1,-,N/A,,Overcast,10,2004-01-24 15:53:00
11:53 AM,28.0,19.9,72,30.11,10.0,NNE,11.5,-,N/A,,Overcast,20,2004-01-24 16:53:00
12:53 PM,30.0,18.0,61,30.12,10.0,NNE,12.7,-,N/A,,Overcast,30,2004-01-24 17:53:00
1:53 PM,30.0,18.0,61,30.11,10.0,NNE,10.4,-,N/A,,Overcast,30,2004-01-24 18:53:00
2:53 PM,28.0,16.0,61,30.10,10.0,ENE,13.8,-,N/A,,Mostly Cloudy,70,2004-01-24 19:53:00
3:53 PM,28.9,14.0,54,30.12,10.0,East,8.1,-,N/A,,Clear,80,2004-01-24 20:53:00
4:53 PM,28.0,12.0,51,30.15,10.0,ENE,8.1,-,N/A,,Clear,70,2004-01-24 21:53:00
5:53 PM,25.0,9.0,51,30.15,10.0,ENE,9.2,-,N/A,,Clear,60,2004-01-24 22:53:00
6:53 PM,24.1,7.0,48,30.16,10.0,ENE,12.7,-,N/A,,Clear,60,2004-01-24 23:53:00
7:53 PM,23.0,6.1,48,30.15,10.0,ENE,13.8,18.4,N/A,,Clear,70,2004-01-25 00:53:00
8:53 PM,23.0,6.1,48,30.18,10.0,ENE,9.2,-,N/A,,Clear,70,2004-01-25 01:53:00
9:53 PM,21.9,5.0,48,30.18,10.0,East,13.8,-,N/A,,Clear,80,2004-01-25 02:53:00
10:53 PM,19.9,3.9,50,30.19,10.0,ENE,11.5,-,N/A,,Clear,70,2004-01-25 03:53:00
11:53 PM,19.0,3.0,50,30.17,10.0,East,12.7,-,N/A,,Clear,90,2004-01-25 04:53:00